www.pogodaiklimat.ru

Погода и климат >> Архив погоды >> Саудовская Аравия >> Makkah


АРХИВ ПОГОДЫ в Makkah

Время (UTC), дата Ветер
(напр.,м/с)
 
Видим.   Явления Облачность Т
(С)
Тd
(С)
f
(%)
Тe
(С)
Тes
(С)
Комфортность P
(гПа)
Po
(гПа)
Тmin
(С)
Tmax
(С)
R
(мм)
S
(см)
00 19.03 штиль 0 10 км 4/1 900 м
[Cu hum Ci fib]
+27.6 +20.0 63 +34 +34 очень
душно
1006.8 980.0
06 19.03 ЮЗ 3 9000 м дымка 10/8 900 м
[St Cc]
+26.6 +23.0 81 +36 +37 очень
душно
1009.5 982.4 +25.1
09 19.03 штиль 0 5000 м мгла 10/10 1200 м
[Sc]
+27.8 +17.0 52 +32 +32 душно 1009.6 982.8
12 19.03 С 4 1000 м пыль {туман} ?/? +30.0 +15.0 40 +32 +32 жарко 1007.4 980.8
15 19.03 С 2 1000 м пыль {туман} ?/? +27.0 +13.0 42 +29 +29 жарко 1007.9 981.1
18 19.03 С 1 1000 м пыль {туман} ?/? +24.4 +12.0 46 +26 +26 жарко 1009.5 982.5 +31.0
06 20.03 С 1 1000 м пыль ?/? +23.0 +12.0 50 +26 +26 жарко 1011.7 984.7 +20.0
09 20.03 СЗ 3 1000 м пыль ?/? +27.0 +10.0 34 +27 +27 жарко 1011.3 984.5
12 20.03 СЗ 1 2500 м пыль ясно +31.2 +11.0 29 +31 +45 жарко 1009.1 982.4
15 20.03 СЗ 2 2000 м пыль ясно +28.8 +13.0 38 +30 +30 жарко 1009.9 983.0
18 20.03 СЗ 1 3500 м мгла ясно +23.6 +16.0 62 +27 +27 жарко 1012.1 984.8 +32.0
00 21.03 штиль 0 7000 м пыль ясно +22.2 +17.0 72 +27 +27 душно 1011.4 984.0
06 21.03 штиль 0 7000 м пыль ясно +22.4 +13.0 55 +25 +36 комфорт 1010.9 983.9 +20.8
09 21.03 ЮЗ 1 7000 м пыль ясно +33.8 +12.0 27 +34 +57 опасность
солнечного
удара
1009.4 983.0
12 21.03 ЮЗ 2 7000 м пыль ясно +36.0 +15.0 29 +38 +49 очень
душно
1006.8 980.3
15 21.03 СЗ 2 7000 м пыль 4/0
[Ci sp]
+30.6 +16.0 41 +33 +34 душно 1007.1 980.3
18 21.03 штиль 0 8000 м пыль ясно +26.6 +18.0 59 +31 +31 душно 1009.3 982.2 +37.0
00 22.03 штиль 0 8000 м ясно +25.2 +17.0 60 +29 +29 душно 1008.8 981.6
06 22.03 Ю 1 8000 м пыль 4/4 1200 м
[Sc diur, vesp]
+26.0 +18.0 61 +30 +36 душно 1009.8 982.6 +23.4
09 22.03 Ю 2 8000 м пыль 3/0
[Ac trans]
+32.0 +19.0 46 +37 +54 опасность
солнечного
удара
1008.0 981.5
12 22.03 Ю 3 5000 м пыль ясно +32.4 +21.0 51 +40 +49 очень
душно
1005.7 979.2
15 22.03 Ю 3 6000 м пыль ясно +28.8 +19.0 55 +34 +34 очень
душно
1006.4 979.6
18 22.03 Ю 1 8000 м пыль ясно +25.8 +19.0 66 +31 +31 очень
душно
1008.4 981.5 +34.4
00 23.03 штиль 0 10 км ясно +26.0 +20.0 70 +32 +32 очень
душно
1008.1 981.2
06 23.03 ЮЗ 3 10 км 8/8 1200 м
[Sc]
+25.0 +22.0 83 +32 +33 очень
душно
1008.2 981.2 +23.4
09 23.03 Ю 7 7000 м пыльный позёмок 5/5 1200 м
[Sc]
+32.0 +22.0 56 +41 +43 опасность
перегрева
1006.4 980.0
18 23.03 ЮЗ 2 8000 м пыль ясно +29.6 +22.0 64 +38 +38 очень
душно
1006.6 979.8 +35.8
00 24.03 штиль 0 10 км 5/5 600 м
[St]
+27.0 +24.0 84 +37 +37 очень
душно
1007.5 980.6
06 24.03 штиль 0 9000 м дымка 8/8 600 м
[St]
+27.2 +24.0 83 +38 +40 очень
душно
1008.1 981.5 +23.9
09 24.03 ЮЗ 4 10 км 6/6 900 м
[Cu hum]
+32.2 +23.0 58 +42 +47 опасность
перегрева
1006.6 980.3
12 24.03 ЮЗ 1 10 км 4/4 900 м
[Sc]
+34.0 +21.0 47 +41 +50 опасность
перегрева
1004.3 978.0
15 24.03 ЮЗ 2 10 км ясно +32.0 +20.0 49 +38 +38 очень
душно
1005.1 978.6
18 24.03 штиль 0 10 км ясно +27.0 +16.0 51 +30 +30 душно 1007.4 980.6 +35.0
06 25.03 штиль 0 10 км ясно +23.0 +11.0 47 +25 +37 комфорт 1009.4 982.3 +22.0
09 25.03 СВ 1 10 км 1/0
[Ci fib]
+30.2 +10.0 29 +30 +53 опасность
солнечного
удара
1007.7 981.2
12 25.03 СЗ 1 10 км ясно +32.4 +13.0 31 +33 +47 жарко 1005.3 978.9
15 25.03 СЗ 3 10 км ясно +28.2 +13.0 39 +30 +30 жарко 1006.6 979.8
18 25.03 СЗ 1 10 км ясно +24.6 +13.0 48 +27 +27 жарко 1009.0 981.9 +33.0

 

Местоположение метеостанции Makkah (Саудовская Аравия): широта 21.43 долгота 39.77 высота над уровнем моря 240 м.

В архиве по умолчанию представлена погода в Makkah за последнюю неделю. Архивные данные за месяц целиком и за предыдущие месяцы, начиная с января 2011 года, Вы можете получить, выбрав интересующий диапазон дат из раскрывающегося списка и нажав кнопку "Ввод!".

Внимание! Время в таблицах - всемирное. Для получения местного времени необходимо прибавить поправку, которая в Makkah равна 3 ч.

Смотрите также архив погоды в соседних городах и на ближайших метеорологических станциях:

Погода в Mina (Саудовская Аравия) (10 км)
Погода в Arafat (Саудовская Аравия) (24 км)
Погода в Jeddah King Abdul Aziz (Саудовская Аравия) (68 км)
Погода в Al Taif (Саудовская Аравия) (81 км)
Погода в Al Baha (Саудовская Аравия) (232 км)
Погода в Port Sudan (Судан) (336 км)
Погода в Bisha (Саудовская Аравия) (338 км)
Погода в Madinah (Саудовская Аравия) (347 км)
Погода в Yanbu (Саудовская Аравия) (347 км)
Погода в Abha (Саудовская Аравия) (466 км)

Пояснения к столбцам:

Ветер - указаны скорость ветра в м/с - средняя за 10 мин, порывы в срок и между сроками (в фигурных скобках) и направление, откуда дует ветер: С - северный, СВ - северо-восточный, В - восточный, ЮВ - юго-восточный, Ю - южный, ЮЗ - юго-западный, З - западный, СЗ - северо-западный.
Видимость - горизонтальная дальность видимости в метрах или километрах. При видимости от 1 до 10 км при отсутствии осадков обычно наблюдается дымка, при ухудшении видимости до 1 км и менее - туман. В сухую погоду видимость может ухудшаться дымом, пылью или мглою.
Явления - указаны атмосферные явления, наблюдавшиеся в срок или в последний час перед сроком; фигурными скобками обозначены явления, наблюдавшиеся между сроками (за 1-3 часа до срока); квадратными скобками обозначены град или гололедные отложения с указанием их диаметра в мм.
Облачность - указаны через наклонную черту общая и нижняя облачность в баллах и высота нижней границы облаков в метрах; квадратными скобками обозначены формы облаков: Ci - перистые, Cs - перисто-слоистые, Cc - перисто-кучевые, Ac - высококучевые, As - высокослоистые, Sc - слоисто-кучевые, Ns - слоисто-дождевые, Cu - кучевые, Cb - кучево-дождевые. Подробнее классификацию облаков см. в Атласе облаков (PDF).
T - Температура воздуха - температура, измеренная на высоте 2 м над землей.
Td - Температура точки росы - температура, при понижении до которой содержащийся в воздухе водяной пар достигнет насыщения.
f - Относительная влажность воздуха - влажноcть воздуха, измеренная на высоте 2 м над землей.
Te - Эффективная температура - температура, которую ощущает одетый по сезону человек в тени. Характеристика душности погоды. При расчете учитывается влияние влажности воздуха и скорости ветра на теплоощущения человека.
Tes - Эффективная температура на солнце - температура, которую ощущает человек, с поправкой на солнечный нагрев. Характеристика знойности погоды. Зависит от высоты солнца над горизонтом, облачности и скорости ветра. Ночью, в пасмурную погоду, а также при ветре 12 м/с и более поправка равна нулю.
P - Атмосферное давление - приведенное к уровню моря атмосферное давление.
Po - Атмосферное давление - измеренное на уровне метеостанции атмосферное давление.
Tmin - Минимальная температура - минимум температуры воздуха на высоте 2 м над землей.
Tmax - Максимальная температура - максимум температуры воздуха на высоте 2 м над землей.
R - Количество осадков - Количество выпавших осадков, мм. При наведении курсора мыши на число - период времени, за который выпало указанное количество осадков.
S - Снежный покров - Высота снежного покрова, см. При наведении курсора мыши на число - состояние снежного покрова и степень покрытия местности в баллах.